Fort Wayne, IN

6:30 AM EST on December 08, 2019 (GMT -0500)
Fort Wayne International

Weather History for KFWA - June, 2019

Change the Weather History Date:

Wednesday, June 12, 2019

  Actual Average Record
Temperature  
Mean Temperature 68 °F 69 °F  
Max Temperature 80 °F 80 °F 95 °F (1956)
Min Temperature 56 °F 59 °F 41 °F (1910)
Degree Days  
Heating Degree Days 0 1  
Month to date heating degree days 10 21  
Since 1 June heating degree days 10 21  
Since 1 July heating degree days 5857 6093  
Cooling Degree Days 3 5  
Month to date cooling degree days 46 51  
Year to date cooling degree days 114 108  
Since 1 June cooling degree days 46 51  
Growing Degree Days 18 (Base 50)    
Moisture  
Dew Point 49 °F    
Average Humidity 55    
Maximum Humidity 77    
Minimum Humidity 32    
Precipitation  
Precipitation 0.00 in 0.14 in 2.39 in (1946)
Month to date precipitation 0.50 1.82  
Year to date precipitation 18.37 16.62  
Sea Level Pressure  
Sea Level Pressure 29.92 in    
Wind  
Wind Speed 7 mph (South)    
Max Wind Speed 20 mph    
Max Gust Speed 29 mph    
Visibility 10 miles    
Events      
T = Trace of Precipitation, MM = Missing Value Source: NWS Daily Summary

Daily Weather History Graph

Daily Weather History Graph

Search for Another Location

Airport or City:

Astronomy

Jun. 12, 2019 Rise Set
Actual Time 6:08 AM EDT 9:13 PM EDT
Civil Twilight 5:34 AM EDT 9:46 PM EDT
Nautical Twilight 4:52 AM EDT 10:29 PM EDT
Astronomical Twilight 4:01 AM EDT 11:19 PM EDT
Moon 4:17 PM EDT (6/12) 3:25 AM EDT (6/12)
Length of Visible Light 16h 11m
Length of Day
15h 05m
Waxing Gibbous, 76% of the Moon is Illuminated
Jun 12
Waxing Gibbous
Jun 17
Full
Jun 25
Last Quarter
Jul 2
New
Jul 9
First Quarter

Hourly Weather History & Observations

Time (EDT) Temp. Dew Point Humidity Pressure Visibility Wind Dir Wind Speed Gust Speed Precip Events Conditions
12:54 AM 63.0 °F 46.9 °F 56% 30.08 in 10.0 mi SE 8.1 mph - N/A   Partly Cloudy
1:54 AM 62.1 °F 46.9 °F 58% 30.08 in 10.0 mi SSE 6.9 mph - N/A   Partly Cloudy
2:54 AM 60.1 °F 46.9 °F 62% 30.07 in 10.0 mi SE 5.8 mph - N/A   Partly Cloudy
3:54 AM 59.0 °F 46.9 °F 64% 30.06 in 10.0 mi Calm Calm - N/A   Mostly Cloudy
4:54 AM 57.9 °F 48.0 °F 70% 30.05 in 10.0 mi Calm Calm - N/A   Mostly Cloudy
5:54 AM 57.0 °F 48.9 °F 74% 30.05 in 10.0 mi SSE 3.5 mph - N/A   Mostly Cloudy
6:54 AM 57.9 °F 50.0 °F 75% 30.06 in 10.0 mi SSE 3.5 mph - N/A   Mostly Cloudy
7:54 AM 60.1 °F 51.1 °F 72% 30.05 in 10.0 mi SSE 4.6 mph - N/A   Mostly Cloudy
8:54 AM 66.0 °F 52.0 °F 60% 30.03 in 10.0 mi South 5.8 mph - N/A   Mostly Cloudy
9:54 AM 71.1 °F 51.1 °F 49% 30.01 in 10.0 mi South 4.6 mph - N/A   Mostly Cloudy
10:54 AM 73.0 °F 48.9 °F 42% 29.99 in 10.0 mi SSE 11.5 mph 20.7 mph N/A   Mostly Cloudy
11:54 AM 75.0 °F 50.0 °F 41% 29.96 in 10.0 mi SSE 9.2 mph 19.6 mph N/A   Mostly Cloudy
12:54 PM 75.0 °F 48.0 °F 38% 29.93 in 10.0 mi SSE 9.2 mph - N/A   Mostly Cloudy
1:54 PM 77.0 °F 48.0 °F 36% 29.90 in 10.0 mi SE 8.1 mph - N/A   Mostly Cloudy
2:54 PM 78.1 °F 48.9 °F 36% 29.87 in 10.0 mi SE 9.2 mph - N/A   Mostly Cloudy
3:54 PM 79.0 °F 48.9 °F 35% 29.85 in 10.0 mi Variable 4.6 mph - N/A   Mostly Cloudy
4:54 PM 77.0 °F 48.9 °F 37% 29.82 in 10.0 mi Variable 5.8 mph - N/A   Mostly Cloudy
5:54 PM 78.1 °F 46.9 °F 33% 29.79 in 10.0 mi Calm Calm - N/A   Mostly Cloudy
6:54 PM 77.0 °F 46.9 °F 34% 29.78 in 10.0 mi WNW 5.8 mph - N/A   Mostly Cloudy
7:54 PM 75.0 °F 48.0 °F 38% 29.76 in 10.0 mi NW 4.6 mph - N/A   Overcast
8:54 PM 73.0 °F 50.0 °F 44% 29.75 in 10.0 mi WNW 8.1 mph - N/A   Overcast
9:54 PM 70.0 °F 50.0 °F 49% 29.74 in 10.0 mi NW 4.6 mph - N/A   Overcast
10:54 PM 68.0 °F 51.1 °F 55% 29.73 in 10.0 mi West 12.7 mph - N/A   Overcast
11:54 PM 64.9 °F 51.1 °F 61% 29.74 in 10.0 mi WNW 16.1 mph 24.2 mph N/A   Overcast